Overview Statistics Trail Chart Weather Telemetry Raw packets
 

This is the latest recevied weather packets stored in our database for station/object N5ATR. If no packets are shown the sender has not sent any weather packets the latest 10 day(s).

<< 91 92 93 94 95 96 97 >>
Time Temp. Humidity Pressure Rain* Wind** Luminosity Snow
1788016214 24.44° C 40% 1026.6 hPa 0 mm - 304 W/m² -
1788015914 24.44° C 39% 1026.3 hPa 0 mm - 287 W/m² -
1788015609 23.89° C 40% 1026.6 hPa 0 mm - 271 W/m² -
1788015303 23.89° C 40% 1026.5 hPa 0 mm - 257 W/m² -
1788015002 23.89° C 40% 1026.6 hPa 0 mm - 240 W/m² -
1788014701 23.89° C 41% 1026.1 hPa 0 mm - 231 W/m² -
1788014397 23.33° C 42% 1026.2 hPa 0 mm - 216 W/m² -
1788014092 23.33° C 42% 1026.6 hPa 0 mm - 201 W/m² -
1788013791 22.78° C 42% 1026.5 hPa 0 mm - 182 W/m² -
1788013486 22.78° C 43% 1026.2 hPa 0 mm - 133 W/m² -
1788013185 22.22° C 43% 1026.3 hPa 0 mm - 146 W/m² -
1788012885 22.22° C 44% 1026.3 hPa 0 mm - 47 W/m² -
1788012579 21.67° C 45% 1026.1 hPa 0 mm - 40 W/m² -
1788012274 21.11° C 46% 1026.2 hPa 0 mm - 38 W/m² -
1788011973 21.67° C 46% 1026 hPa 0 mm - 40 W/m² -
1788011672 21.11° C 46% 1026 hPa 0 mm - 35 W/m² -
1788011369 21.11° C 46% 1026.1 hPa 0 mm - 32 W/m² -
1788011067 20.56° C 47% 1025.8 hPa 0 mm - 32 W/m² -
1788010763 20.56° C 47% 1025.8 hPa 0 mm - 31 W/m² -
1788010461 20.56° C 47% 1025.8 hPa 0 mm - 30 W/m² -
1788010156 20° C 48% 1026.2 hPa 0 mm - 30 W/m² -
1788009850 20° C 48% 1025.8 hPa 0 mm - 27 W/m² -
1788009548 19.44° C 49% 1026.1 hPa 0 mm - 25 W/m² -
1788009244 19.44° C 49% 1025.7 hPa 0 mm - 22 W/m² -
1788008944 18.89° C 50% 1025.7 hPa 0 mm - 19 W/m² -

* Rain latest hour (hover to see other rain measurements)
** Current wind speed in m/s (hover to see current wind gust speed)